Location: C�mpuri de-Sus
(45.9500°N, 22.5500°E)
Time: 03:44:35
(UTC+00:00)

SKYMED 3 - Pass Details

Date: 24 October 2021
Orbit: 621 x 623 km, 97.9° (Epoch: 30 November)

Event Time Altitude Azimuth Distance (km) Brightness Sun altitude
Rises 16:37:07 0° 14° (NNE) 2,916 7.8 -12.6°
Reaches altitude 10° 16:39:20 10° 15° (NNE) 2,004 7.0 -13.0°
Maximum altitude 16:43:42 81° 104° (ESE) 637 4.5 -13.7°
Drops below altitude 10° 16:48:02 10° 191° (S) 1,987 7.3 -14.5°
Sets 16:50:12 0° 192° (SSW) 2,888 8.2 -14.9°
